Location: Unspecified
(64.9000°N, 0.0000°E)
Time: 03:16:47
(UTC+00:00)

Transit 2A Rocket - Pass Details

Date: 26 June 2019
Orbit: 588 x 915 km, 66.7° (Epoch: 23 July)

Event Time Altitude Azimuth Distance (km) Brightness Sun altitude
Rises 14:32:48 0° 285° (WNW) 3,474 8.7 41.9°
Reaches altitude 10° 14:35:23 10° 286° (WNW) 2,497 8.1 41.7°
Maximum altitude 14:41:11 81° 15° (NNE) 823 5.8 41.2°
Drops below altitude 10° 14:46:27 10° 103° (ESE) 2,279 7.3 40.8°
Sets 14:48:43 0° 104° (ESE) 3,150 7.9 40.6°
